{"data":{"norad_id":55137,"intl_designator":"2023-003E","name":"2023-003E","alt_names":[],"object_type":"PAYLOAD","status":"ACTIVE","operator":null,"country":"PRC","launch_date":"2023-01-09","launch_site_code":"JSC","launch_vehicle":null,"mission":null,"orbit_class":"UNKNOWN","rcs_meters":null,"size_class":null,"mass_kg":null,"dimensions":null,"purposes":[],"wikipedia_slug":null,"has_3d_model":false,"image_url":null,"decayed_at":null,"tle_current":{"epoch":"2026-09-21T23:01:51.383136Z","epoch_age_seconds":42156,"freshness":"FRESH","line1":"1 55137U 23003E   26264.95962249  .00019738  00000+0  25337-3 0  9995","line2":"2 55137  97.1351 340.5200 0004729 111.6178 248.5583 15.59149490207326","mean_motion":15.5914949,"eccentricity":0.0004729,"inclination_deg":97.1351,"raan_deg":340.52,"arg_perigee_deg":111.6178,"mean_anomaly_deg":248.5583,"bstar":0.00025337,"rev_number":20732,"period_min":92.358045795852,"perigee_km":386.91662593393,"apogee_km":393.31804088247,"semimajor_km":6768.2543334082,"source":"CELESTRAK","updated_at":"2026-09-22T09:00:25.273543Z"}}}